Location: Powder Track
(41.8531°N, 72.3584°W)
Time: 09:22:53
(UTC+00:00)

Transit 4A - Pass Details

Date: 10 August 2021
Orbit: 871 x 974 km, 66.8° (Epoch: 20 September)

Event Time Altitude Azimuth Distance (km) Brightness Sun altitude
Rises 01:30:20 0° 177° (S) 3,491 - -15.8°
Reaches altitude 10° 01:33:08 10° 166° (SSE) 2,541 - -16.2°
Exits shadow 01:36:53 27° 129° (SE) 1,638 8.6 -16.7°
Maximum altitude 01:38:04 29° 109° (ESE) 1,564 8.6 -16.9°
Drops below altitude 10° 01:42:58 10° 51° (NE) 2,525 10.1 -17.6°
Sets 01:45:44 0° 41° (NE) 3,465 10.9 -17.9°
